Location: Fours
(44.3167°N, 6.7000°E)
Time: 09:07:48
(UTC+00:00)

Meteor 1-27 Rocket - Pass Details

Date: 30 November 2020
Orbit: 830 x 909 km, 81.3° (Epoch: 26 January)

Event Time Altitude Azimuth Distance (km) Brightness Sun altitude
Rises 18:19:32 0° 179° (S) 3,359 6.9 -25.1°
Reaches altitude 10° 18:21:56 10° 176° (S) 2,432 6.1 -25.5°
Enters shadow 18:25:26 39° 160° (SSE) 1,227 4.4 -26.1°
